Wind_Speed
11 11 12 13 14 14 15 16 15 15 14 14 13 13 13 13 12 11 10 10 10 9 9 9 9 7 5 2 2 2 1 2 2 3 3 3 4 5 5 5 6 7 7 8 8 8 8 8 9
10 11 11 13 14 14 16 16 15 16 15 15 13 13 13 12 12 11 10 10 10 10 10 10 9 7 5 3 2 2 2 2 2 2 3 3 3 4 5 5 6 6 7 8 8 7 8 9 9
11 12 12 13 14 15 16 16 16 17 16 14 13 13 13 12 12 11 11 11 11 11 10 10 9 8 6 4 2 2 2 3 3 3 3 3 3 4 4 5 5 6 6 7 8 7 8 9 9
12 12 11 13 15 16 15 15 16 15 15 14 14 14 14 13 13 13 12 12 11 11 10 10 9 8 7 4 3 3 3 3 3 2 2 2 3 3 3 4 5 6 6 7 8 8 8 9 8
10 11 11 13 14 15 15 15 15 15 14 14 14 14 14 14 14 14 14 13 12 11 10 10 9 9 7 5 4 3 3 3 2 1 1 1 1 2 3 4 4 5 6 7 7 7 8 8 9
8 10 11 12 14 15 14 14 14 14 15 15 15 15 15 15 15 14 14 14 13 12 11 11 11 10 8 6 4 4 3 3 3 2 1 1 1 1 2 3 4 4 5 6 6 7 7 7 8
10 11 11 12 13 14 14 14 14 14 15 15 15 15 15 15 14 14 14 14 13 12 11 10 10 9 8 7 5 4 3 2 2 2 1 1 1 1 1 2 3 3 4 5 6 6 7 7 7
9 10 11 11 12 13 13 14 14 14 14 14 14 16 15 15 15 14 14 14 13 12 11 11 10 9 8 6 4 4 3 2 2 2 2 2 1 1 1 2 2 2 3 4 5 6 6 6 5
9 10 11 11 12 12 12 13 14 15 15 15 15 15 15 14 14 14 13 13 12 11 11 11 10 10 9 7 6 5 3 2 2 3 3 2 2 2 1 1 2 3 4 4 4 4 5 5 5
9 10 11 10 10 11 11 13 14 15 14 15 14 14 14 14 14 13 13 12 12 11 12 12 11 10 9 8 7 6 5 4 4 3 4 3 3 3 2 2 2 3 3 3 3 3 4 5 5
8 8 9 9 8 9 11 12 13 15 14 13 13 13 14 14 14 14 13 12 12 13 12 12 12 11 10 9 8 7 6 5 4 4 4 4 3 3 3 3 3 3 3 2 3 3 4 4 4
5 6 7 8 8 8 9 11 12 14 14 13 13 13 14 14 14 14 13 12 12 13 13 11 11 11 11 9 8 8 8 7 6 5 4 4 4 4 4 4 4 3 4 4 3 4 4 4 3
4 5 5 7 7 7 9 11 12 12 12 13 13 12 13 14 15 14 13 13 12 13 13 12 12 12 11 9 9 9 9 8 7 7 6 5 6 5 6 6 6 6 6 5 5 5 4 3 2
3 3 4 5 6 7 8 10 11 12 12 12 13 11 11 12 13 13 13 13 13 13 13 13 12 13 12 11 10 9 9 8 7 7 6 6 6 6 6 6 6 6 6 6 6 5 5 4 3
2 1 2 4 5 6 8 10 11 12 12 12 12 12 11 11 12 11 11 12 12 12 12 12 12 12 12 11 10 9 9 8 8 8 7 7 6 6 6 6 6 6 6 6 6 6 5 5 5
4 2 1 3 4 6 8 9 11 12 12 12 11 11 11 11 10 10 10 10 11 12 12 11 11 11 10 10 10 9 9 9 9 8 7 7 7 6 6 6 6 7 6 6 6 6 5 5 5
3 3 3 4 4 6 8 10 12 12 10 10 10 10 10 10 10 9 9 10 10 11 11 11 11 10 9 9 9 8 8 8 8 8 8 7 7 6 6 6 7 7 6 5 5 6 6 6 6
3 4 4 4 5 7 8 10 12 12 11 9 9 10 9 10 9 8 9 9 9 9 10 10 10 10 9 8 8 8 8 8 8 8 7 7 7 7 7 7 7 6 6 6 6 6 6 6 6
4 4 5 5 5 8 9 11 12 10 9 8 9 9 10 9 7 7 8 8 8 8 9 9 9 9 9 8 7 7 8 8 8 7 7 7 8 8 8 8 8 7 7 7 7 7 7 7 7
5 5 5 5 5 7 10 10 10 9 7 8 8 9 9 9 7 7 7 7 7 7 8 9 8 8 8 8 8 8 7 8 8 8 8 8 8 8 8 8 9 9 9 9 9 9 8 8 9
7 6 5 5 6 9 11 9 9 8 9 9 8 10 10 10 8 7 7 7 7 6 7 8 8 8 9 9 9 9 9 9 8 9 9 9 9 9 9 9 10 10 10 10 10 10 9 10 11
9 7 8 7 8 10 12 12 9 8 9 9 9 10 10 9 10 9 8 7 7 6 7 7 8 8 9 9 10 10 10 10 9 9 9 10 10 10 10 10 11 11 11 11 11 11 11 12 12
9 10 10 10 10 11 11 12 9 8 8 9 9 9 10 10 11 10 9 8 7 6 6 7 7 8 9 9 10 10 10 10 10 10 10 10 11 11 11 12 12 12 13 13 13 12 13 13 13
11 12 11 10 10 10 10 10 10 10 11 9 8 9 10 10 11 11 10 9 8 7 7 7 7 8 9 9 10 10 11 11 11 11 11 11 11 12 12 13 13 13 14 14 14 14 14 14 14
13 12 11 10 10 10 10 11 11 11 11 10 10 9 10 10 11 11 10 9 8 8 8 8 8 9 10 11 11 11 12 11 12 12 12 12 12 13 13 14 14 14 15 15 15 15 15 15 15
13 12 12 11 11 11 11 11 12 13 12 10 10 9 10 10 10 10 9 8 9 9 8 9 10 11 12 12 13 13 12 12 13 13 13 13 13 14 14 15 15 15 16 16 17 17 17 17 17
14 14 13 13 13 14 13 13 12 13 12 11 10 8 10 11 10 10 9 9 9 9 10 10 11 12 13 13 13 13 14 14 14 14 14 14 15 15 16 16 16 17 17 18 19 19 19 18 18
15 14 13 14 14 15 15 13 14 13 12 11 9 9 10 11 10 9 9 9 9 10 11 11 12 13 14 13 14 14 15 15 15 14 15 16 17 18 18 18 18 18 19 20 21 21 20 19 20
16 15 15 15 16 16 16 14 13 13 12 11 10 9 9 10 10 10 10 10 11 11 12 12 13 14 14 14 14 14 15 15 15 15 16 17 18 18 18 19 19 20 20 21 21 21 21 21 21
18 17 16 16 16 17 18 15 12 12 12 11 11 10 9 10 11 11 11 12 12 12 12 13 13 14 15 14 14 14 15 17 17 16 17 18 19 20 20 21 21 21 21 21 21 21 21 21 22
Wind_Direction
74 69 63 57 49 45 44 41 40 42 40 40 36 30 26 24 22 23 17 18 20 18 17 16 14 9 8 5 14 2 342 332 310 288 269 258 248 238 229 231 233 235 237 237 241 247 249 254 255
77 71 65 56 49 43 39 38 38 39 38 36 31 26 23 20 20 21 18 23 24 22 20 19 23 26 35 44 36 8 346 332 316 299 289 277 261 253 236 236 240 240 240 237 242 249 251 257 260
75 71 63 53 47 41 38 38 38 36 33 32 27 23 22 20 23 24 22 28 30 27 23 21 26 36 41 45 32 3 344 334 324 303 280 270 253 253 248 246 247 246 246 246 248 256 255 259 261
75 69 61 51 47 44 42 38 36 35 30 27 26 23 24 25 27 28 28 30 32 28 25 26 29 34 36 41 40 14 348 346 342 325 289 246 244 245 246 249 250 251 249 247 251 259 259 265 270
68 67 59 50 47 43 40 35 32 31 30 29 27 25 26 29 31 30 33 33 35 31 28 31 34 34 32 31 32 14 3 6 10 24 135 193 248 239 242 242 253 254 251 251 251 253 261 268 276
65 62 58 53 50 47 38 32 27 27 31 29 28 27 28 31 33 32 34 32 35 36 34 34 36 34 34 35 34 34 28 23 21 29 64 19 300 245 236 245 260 260 253 252 252 255 266 274 278
62 51 52 53 47 44 36 30 26 24 27 28 27 27 28 30 31 32 35 31 32 35 37 36 33 34 35 31 28 30 37 33 32 25 22 9 317 275 268 269 268 270 262 259 258 261 270 279 282
61 53 50 47 42 39 38 30 25 22 24 27 26 25 27 30 29 29 33 33 34 37 38 37 34 32 30 28 31 32 43 66 61 41 38 34 33 340 288 293 282 284 278 273 274 272 281 285 289
62 58 46 43 37 40 35 29 24 23 26 25 25 24 26 30 29 28 31 33 35 38 38 36 37 39 40 42 45 39 54 80 75 66 60 59 58 38 3 324 312 313 301 285 279 280 283 286 290
65 61 55 53 42 36 28 24 23 24 23 24 27 27 27 30 31 26 29 33 34 38 40 39 38 39 44 45 47 51 55 59 55 63 65 64 68 49 21 358 338 334 321 298 294 296 291 288 288
73 62 52 56 45 34 23 17 21 24 22 24 25 30 28 30 30 25 25 29 33 34 35 38 41 38 39 42 46 49 48 47 50 54 51 45 56 46 28 24 12 3 354 340 322 320 307 294 290
74 67 51 44 35 28 18 14 16 20 23 22 24 27 28 29 28 28 29 32 33 34 33 36 39 37 36 43 52 54 53 59 62 56 52 49 45 48 44 35 36 35 31 20 351 337 337 314 292
98 78 59 41 27 20 15 12 12 12 20 20 21 24 22 25 26 29 33 34 34 35 36 40 42 41 39 43 50 54 57 56 56 54 56 53 56 52 47 44 44 43 36 30 15 0 355 357 335
121 92 61 40 27 12 6 6 7 11 18 18 18 17 20 22 23 28 32 34 35 36 38 37 42 41 42 45 52 56 54 50 47 51 54 57 54 51 48 42 34 33 29 21 16 11 10 10 14
184 130 51 18 5 7 3 357 356 9 13 15 15 16 20 23 21 24 32 37 37 40 41 40 44 40 41 44 49 53 50 47 46 51 52 46 44 42 40 36 31 24 20 14 11 10 9 8 8
211 230 304 330 343 353 356 351 352 2 5 10 9 10 12 19 20 22 31 37 37 38 40 38 40 39 38 40 43 48 46 43 45 45 43 37 38 33 33 29 21 19 18 17 15 10 4 352 349
228 256 287 298 317 329 334 338 345 353 356 1 2 4 6 10 13 20 25 29 30 31 33 35 34 35 36 36 37 38 36 37 37 35 35 32 28 19 18 19 15 12 15 14 7 5 357 346 339
252 291 301 297 310 316 323 329 336 343 349 355 358 359 1 7 9 18 19 21 27 26 28 30 29 30 32 33 33 32 28 26 23 22 26 26 21 17 16 10 10 13 9 1 354 344 340 337 336
250 279 301 309 304 311 317 326 335 339 347 356 1 360 359 1 8 14 14 12 20 22 23 23 25 25 24 27 29 28 24 21 15 14 15 16 15 13 9 6 7 6 359 350 342 336 333 330 327
236 259 284 297 299 309 313 320 325 331 334 345 352 352 358 3 358 1 3 5 12 13 14 15 17 17 15 15 15 15 15 13 11 8 3 3 4 6 8 6 360 353 345 341 338 334 327 322 317
228 255 273 283 287 290 298 307 314 318 325 334 343 345 349 355 354 350 350 352 354 356 358 2 3 6 8 9 9 10 8 5 4 358 355 356 359 1 1 357 350 345 341 337 333 330 325 321 315
233 249 267 276 282 289 295 300 303 303 313 325 334 339 340 346 347 343 337 340 345 344 350 350 349 353 359 2 0 358 354 350 347 347 350 353 352 352 349 345 341 339 336 334 332 328 322 319 316
245 247 260 268 281 286 292 298 295 296 305 311 322 331 338 337 340 339 335 333 337 337 343 342 339 342 345 348 351 349 347 344 341 340 338 338 337 337 337 337 337 334 331 329 327 324 321 317 314
244 243 250 258 267 271 281 288 292 293 295 295 306 320 330 332 334 336 335 330 327 329 336 334 331 333 334 338 342 343 340 337 335 334 331 328 327 328 329 331 331 330 328 324 321 319 317 314 311
236 239 249 252 260 270 276 283 290 295 294 299 305 310 322 328 328 331 328 324 325 321 320 325 329 329 329 330 331 330 330 329 326 325 324 324 323 323 323 324 325 325 323 319 317 314 312 310 308
232 236 251 259 263 273 273 281 292 296 296 304 312 309 314 320 321 321 323 319 311 309 311 314 318 320 320 322 322 323 324 322 320 319 319 320 320 320 319 318 318 317 316 315 313 311 309 307 305
233 235 250 261 263 271 274 283 290 296 301 306 307 305 307 310 313 314 317 320 313 309 307 307 311 314 316 317 317 317 318 318 318 319 317 316 316 316 315 313 312 312 312 312 310 307 305 304 302
237 238 247 255 266 273 273 282 292 292 301 306 310 299 304 306 306 308 308 311 309 306 305 306 308 309 311 313 314 314 314 316 317 318 319 318 318 317 315 311 311 311 310 309 308 305 302 301 300
236 237 247 257 267 276 277 285 291 284 296 305 308 302 304 305 306 307 305 304 304 303 302 302 304 305 307 310 312 313 312 310 312 316 318 318 316 315 316 314 313 312 309 308 308 306 304 302 300
241 242 246 254 263 271 279 289 290 288 291 298 298 297 296 294 300 306 307 303 302 300 301 302 305 306 305 306 308 309 312 312 310 311 314 314 313 313 312 313 312 311 310 308 307 305 304 302 303
Height
5905 5904 5903 5903 5902 5900 5898 5898 5897 5896 5895 5894 5892 5891 5889 5888 5887 5888 5884 5880 5878 5877 5875 5874 5871 5868 5866 5867 5869 5870 5870 5870 5869 5869 5869 5870 5870 5871 5871 5872 5872 5873 5873 5874 5874 5874 5874 5874 5874
5906 5905 5905 5904 5902 5901 5900 5899 5898 5897 5896 5895 5893 5892 5890 5888 5887 5885 5882 5880 5878 5877 5875 5874 5871 5869 5867 5868 5869 5869 5869 5869 5868 5868 5868 5869 5869 5870 5870 5870 5871 5872 5872 5872 5872 5873 5873 5873 5872
5907 5906 5907 5905 5903 5902 5902 5900 5899 5898 5897 5896 5895 5893 5891 5889 5887 5885 5882 5880 5879 5877 5876 5874 5872 5870 5869 5869 5869 5869 5869 5868 5867 5867 5867 5868 5868 5869 5869 5870 5870 5871 5871 5871 5871 5871 5871 5871 5871
5909 5909 5908 5906 5904 5903 5903 5902 5900 5900 5899 5898 5896 5894 5891 5889 5887 5885 5883 5880 5879 5877 5876 5874 5873 5872 5871 5870 5869 5869 5868 5868 5866 5865 5865 5866 5868 5868 5869 5869 5870 5870 5870 5870 5870 5870 5870 5869 5869
5911 5909 5908 5906 5905 5904 5904 5903 5902 5902 5900 5899 5897 5894 5892 5890 5887 5885 5883 5881 5880 5878 5876 5874 5873 5872 5871 5870 5869 5869 5868 5867 5866 5865 5865 5866 5867 5868 5868 5869 5869 5869 5868 5868 5869 5868 5868 5868 5867
5911 5910 5909 5907 5906 5906 5906 5904 5904 5903 5901 5899 5897 5895 5893 5890 5888 5886 5884 5882 5881 5879 5876 5875 5874 5872 5871 5870 5869 5869 5868 5868 5867 5866 5866 5867 5867 5868 5868 5868 5868 5867 5867 5867 5867 5867 5867 5866 5865
5913 5911 5909 5908 5908 5907 5907 5906 5904 5903 5902 5900 5898 5896 5893 5891 5889 5887 5885 5883 5881 5879 5877 5875 5874 5873 5871 5870 5870 5869 5868 5868 5868 5867 5867 5867 5867 5867 5867 5868 5867 5867 5866 5866 5866 5866 5865 5864 5863
5913 5913 5911 5910 5909 5909 5908 5907 5905 5904 5903 5901 5899 5896 5894 5893 5890 5888 5886 5884 5883 5880 5878 5876 5874 5873 5872 5870 5869 5869 5869 5868 5868 5868 5867 5867 5867 5867 5867 5867 5867 5866 5865 5865 5865 5864 5864 5863 5862
5914 5914 5912 5911 5910 5910 5909 5908 5907 5905 5904 5902 5899 5898 5896 5893 5891 5889 5888 5886 5884 5881 5879 5877 5875 5874 5872 5870 5870 5869 5869 5868 5868 5868 5868 5867 5867 5867 5867 5866 5866 5865 5864 5864 5864 5863 5862 5862 5861
5914 5913 5913 5912 5912 5911 5910 5909 5908 5906 5904 5903 5901 5899 5897 5895 5892 5890 5889 5887 5885 5883 5880 5878 5876 5874 5873 5872 5870 5869 5869 5869 5869 5868 5868 5868 5867 5867 5867 5866 5865 5864 5864 5863 5862 5862 5861 5861 5860
5914 5914 5913 5912 5911 5911 5911 5910 5909 5907 5906 5904 5902 5900 5898 5896 5894 5892 5889 5888 5886 5883 5881 5879 5876 5875 5874 5873 5871 5871 5870 5870 5870 5869 5869 5868 5868 5868 5867 5866 5865 5864 5864 5863 5862 5861 5860 5859 5858
5915 5915 5914 5913 5912 5911 5911 5910 5909 5908 5907 5905 5903 5901 5899 5897 5895 5893 5891 5889 5887 5885 5882 5880 5878 5876 5875 5873 5872 5872 5871 5871 5871 5870 5869 5869 5868 5868 5867 5866 5865 5864 5863 5862 5861 5861 5860 5859 5857
5916 5915 5914 5913 5913 5911 5911 5911 5910 5908 5907 5905 5903 5901 5900 5898 5896 5894 5892 5890 5888 5886 5884 5882 5879 5878 5876 5874 5873 5873 5872 5872 5871 5871 5870 5869 5869 5868 5867 5866 5865 5864 5863 5863 5862 5860 5859 5858 5857
5916 5915 5914 5913 5913 5912 5912 5912 5910 5908 5907 5905 5904 5902 5901 5899 5897 5895 5893 5891 5889 5887 5885 5883 5881 5879 5877 5876 5874 5874 5874 5873 5872 5871 5870 5870 5869 5868 5867 5866 5865 5864 5864 5863 5862 5860 5859 5858 5857
5915 5915 5914 5914 5913 5912 5913 5912 5910 5909 5907 5906 5904 5903 5901 5899 5898 5896 5894 5892 5890 5888 5886 5885 5883 5880 5879 5877 5876 5875 5875 5874 5873 5872 5871 5870 5869 5869 5868 5867 5866 5865 5864 5863 5862 5861 5859 5858 5857
5915 5915 5914 5914 5913 5912 5914 5912 5910 5909 5908 5906 5905 5903 5901 5900 5898 5897 5895 5893 5891 5889 5888 5886 5884 5882 5881 5879 5877 5876 5876 5875 5874 5873 5872 5871 5870 5869 5868 5867 5866 5865 5863 5862 5861 5860 5859 5858 5857
5914 5914 5914 5914 5913 5912 5912 5911 5910 5908 5907 5906 5905 5904 5902 5900 5899 5897 5896 5895 5893 5891 5889 5887 5886 5884 5882 5881 5879 5878 5877 5876 5875 5874 5873 5871 5870 5869 5868 5867 5866 5864 5863 5862 5861 5860 5859 5857 5856
5913 5913 5912 5912 5911 5910 5910 5910 5909 5907 5906 5905 5905 5903 5902 5901 5899 5898 5897 5895 5894 5892 5891 5889 5887 5885 5884 5882 5880 5879 5878 5877 5875 5874 5873 5871 5870 5869 5868 5866 5865 5864 5863 5861 5860 5859 5858 5857 5855
5911 5911 5911 5911 5910 5910 5909 5908 5907 5906 5905 5904 5904 5903 5902 5900 5899 5898 5897 5895 5894 5893 5892 5890 5888 5886 5885 5883 5881 5880 5878 5877 5875 5874 5873 5871 5870 5869 5867 5865 5864 5863 5862 5860 5859 5858 5857 5856 5854
5909 5909 5909 5908 5909 5909 5908 5907 5906 5905 5905 5904 5903 5902 5901 5900 5899 5898 5896 5895 5894 5893 5892 5890 5889 5887 5885 5884 5882 5880 5879 5877 5876 5875 5873 5871 5870 5868 5866 5865 5863 5862 5861 5859 5858 5856 5855 5853 5852
5908 5908 5908 5907 5907 5907 5907 5906 5905 5904 5904 5903 5902 5901 5900 5899 5898 5897 5896 5895 5893 5892 5891 5890 5889 5887 5886 5884 5882 5880 5879 5877 5876 5874 5872 5870 5869 5867 5866 5864 5862 5861 5859 5857 5856 5854 5853 5851 5850
5906 5907 5906 5905 5905 5905 5905 5904 5904 5903 5903 5902 5901 5900 5898 5897 5897 5896 5895 5893 5892 5891 5890 5889 5888 5887 5885 5884 5882 5880 5878 5877 5875 5873 5871 5870 5868 5866 5864 5863 5861 5859 5857 5855 5853 5852 5850 5849 5847
5904 5904 5904 5904 5903 5904 5903 5902 5903 5901 5901 5901 5899 5898 5897 5896 5895 5894 5893 5892 5891 5890 5889 5888 5887 5885 5884 5883 5881 5879 5877 5875 5874 5872 5870 5868 5866 5864 5863 5861 5859 5857 5855 5853 5851 5849 5847 5845 5844
5901 5902 5902 5902 5901 5901 5901 5900 5900 5899 5899 5899 5897 5896 5895 5894 5893 5892 5891 5890 5889 5889 5888 5887 5886 5884 5882 5881 5879 5878 5876 5874 5872 5870 5868 5867 5865 5862 5860 5858 5856 5854 5852 5850 5848 5846 5844 5842 5840
5898 5899 5900 5899 5899 5899 5898 5897 5897 5896 5896 5896 5895 5894 5893 5891 5890 5890 5889 5889 5888 5887 5886 5885 5884 5883 5881 5879 5877 5876 5874 5872 5870 5868 5866 5864 5862 5860 5858 5856 5853 5851 5849 5846 5844 5842 5840 5838 5836
5895 5896 5897 5897 5896 5896 5895 5894 5895 5893 5892 5892 5892 5891 5890 5889 5888 5888 5887 5887 5886 5885 5884 5883 5882 5881 5879 5877 5875 5873 5871 5869 5867 5865 5864 5862 5860 5857 5855 5852 5850 5848 5845 5843 5840 5838 5835 5833 5831
5892 5893 5894 5894 5893 5893 5893 5892 5891 5890 5890 5889 5888 5887 5886 5886 5885 5885 5885 5884 5883 5882 5882 5880 5879 5878 5877 5874 5872 5870 5868 5866 5864 5862 5861 5859 5856 5854 5851 5849 5846 5844 5841 5838 5836 5833 5831 5829 5826
5889 5890 5890 5890 5890 5889 5889 5889 5889 5888 5887 5887 5886 5885 5884 5883 5882 5882 5882 5881 5881 5880 5879 5878 5876 5875 5873 5871 5869 5867 5865 5863 5861 5859 5857 5855 5853 5850 5848 5845 5842 5839 5837 5834 5831 5828 5826 5823 5821
5885 5886 5886 5886 5886 5886 5885 5888 5886 5885 5884 5883 5882 5881 5881 5881 5880 5879 5879 5879 5878 5877 5876 5875 5873 5871 5869 5868 5866 5863 5861 5859 5857 5855 5853 5851 5849 5846 5843 5841 5838 5835 5832 5829 5826 5824 5820 5818 5815
5880 5881 5882 5883 5882 5882 5881 5884 5882 5881 5881 5880 5879 5879 5878 5878 5877 5876 5876 5875 5875 5874 5873 5872 5870 5867 5865 5864 5862 5860 5858 5856 5853 5851 5849 5847 5844 5841 5839 5836 5833 5830 5827 5824 5821 5818 5815 5812 5810